ZACUBE-1 (TSHEPISOSAT)

Last updated on Thu Dec 18 2025 00:03:10 GMT+0000 (Coordinated Universal Time)

1 39417U 13066B 25351.39749824 .00003280 00000+0 27002-3 0 9998 2 39417 97.8056 307.9496 0042001 132.1904 228.2897 14.99124350653477
UTC large
Height (km)
Speed (km/s)
/
Latitude / Longitude
Inclination (degrees)
Orbital Period (minutes)
Azimuth
Elevation
Range (km)
Doppler Factor

Next 0 passes for location: London (51.5072 / 0.1276)

Sorry there are no passes over London.